| time (UTC) | temp C | wind direction | speed KPH | gust KPH | rain 1hr cm | rain 24hr cm | rain mn cm | humidity % | barometer mb |
| 20260510120056 | 11 | 183 | 0.0 | 0.0 | 0.00 | 0.00 | 0.00 | 86 | 1016.5 |
| 20260510114552 | 10 | 183 | 0.0 | 0.0 | 0.00 | 0.00 | 0.00 | 89 | 1016.6 |
| 20260510113048 | 9 | 183 | 0.0 | 0.0 | 0.00 | 0.00 | 0.00 | 90 | 1016.3 |
| 20260510111544 | 8 | 183 | 0.0 | 0.0 | 0.00 | 0.00 | 0.00 | 92 | 1016.1 |
| 20260510110046 | 8 | 183 | 0.0 | 0.0 | 0.00 | 0.00 | 0.00 | 92 | 1015.7 |
| 20260510104538 | 8 | 183 | 0.0 | 0.0 | 0.00 | 0.00 | 0.00 | 92 | 1015.3 |
| 20260510103036 | 8 | 183 | 0.0 | 0.0 | 0.00 | 0.00 | 0.00 | 92 | 1015.3 |
| 20260510101537 | 8 | 183 | 0.0 | 0.0 | 0.00 | 0.00 | 0.00 | 90 | 1015.1 |
| 20260510100031 | 8 | 245 | 0.0 | 0.0 | 0.00 | 0.00 | 0.00 | 90 | 1015.1 |
| 20260510094528 | 9 | 263 | 0.0 | 8.0 | 0.00 | 0.00 | 0.00 | 90 | 1015.0 |
| 20260510093031 | 9 | 276 | 0.0 | 0.0 | 0.00 | 0.00 | 0.00 | 90 | 1015.0 |
| 20260510091528 | 9 | 245 | 0.0 | 0.0 | 0.00 | 0.00 | 0.00 | 90 | 1014.9 |
| 20260510090028 | 9 | 245 | 0.0 | 0.0 | 0.00 | 0.00 | 0.00 | 90 | 1014.9 |
| 20260510084519 | 9 | 245 | 0.0 | 1.6 | 0.00 | 0.00 | 0.00 | 89 | 1014.6 |
| 20260510083021 | 9 | 271 | 0.0 | 1.6 | 0.00 | 0.00 | 0.00 | 89 | 1014.4 |
| 20260510081517 | 9 | 271 | 0.0 | 4.8 | 0.00 | 0.00 | 0.00 | 89 | 1014.2 |
| 20260510080016 | 9 | 246 | 0.0 | 0.0 | 0.00 | 0.00 | 0.00 | 89 | 1014.2 |
| 20260510074515 | 9 | 246 | 0.0 | 3.2 | 0.00 | 0.00 | 0.00 | 89 | 1014.0 |
| 20260510073014 | 9 | 248 | 0.0 | 6.4 | 0.00 | 0.00 | 0.00 | 88 | 1014.1 |
| 20260510071518 | 10 | 279 | 0.0 | 0.0 | 0.00 | 0.00 | 0.00 | 87 | 1014.0 |
| 20260510070010 | 10 | 279 | 0.0 | 0.0 | 0.00 | 0.00 | 0.00 | 87 | 1013.8 |
| 20260510064524 | 10 | 279 | 0.0 | 0.0 | 0.00 | 0.00 | 0.00 | 86 | 1013.9 |
| 20260510063008 | 10 | 279 | 0.0 | 0.0 | 0.00 | 0.00 | 0.00 | 85 | 1014.0 |
| 20260510061510 | 10 | 279 | 0.0 | 0.0 | 0.00 | 0.00 | 0.00 | 85 | 1014.0 |
| 20260510060001 | 10 | 279 | 0.0 | 0.0 | 0.00 | 0.00 | 0.00 | 83 | 1014.0 |
| 20260510054600 | 11 | 335 | 0.0 | 4.8 | 0.00 | 0.00 | 0.00 | 83 | 1014.0 |
| 20260510053058 | 11 | 275 | 0.0 | 3.2 | 0.00 | 0.00 | 0.00 | 82 | 1014.1 |
| 20260510051559 | 11 | 275 | 0.0 | 0.0 | 0.00 | 0.00 | 0.00 | 80 | 1014.2 |
| 20260510050052 | 11 | 275 | 0.0 | 0.0 | 0.00 | 0.00 | 0.00 | 80 | 1014.0 |
| 20260510044550 | 12 | 275 | 0.0 | 0.0 | 0.00 | 0.00 | 0.00 | 78 | 1014.2 |
| 20260510043047 | 12 | 275 | 0.0 | 0.0 | 0.00 | 0.00 | 0.00 | 77 | 1014.3 |
| 20260510041542 | 13 | 275 | 0.0 | 0.0 | 0.00 | 0.00 | 0.00 | 75 | 1013.9 |
| 20260510040038 | 13 | 277 | 0.0 | 0.0 | 0.00 | 0.00 | 0.00 | 74 | 1014.0 |
| 20260510034538 | 13 | 284 | 0.0 | 0.0 | 0.00 | 0.00 | 0.00 | 74 | 1014.1 |
| 20260510033045 | 13 | 286 | 0.0 | 0.0 | 0.00 | 0.00 | 0.00 | 73 | 1014.1 |
| 20260510031536 | 13 | 342 | 0.0 | 6.4 | 0.00 | 0.00 | 0.00 | 74 | 1013.9 |
| 20260510030036 | 13 | 274 | 0.0 | 3.2 | 0.00 | 0.00 | 0.00 | 73 | 1014.0 |
| 20260510024536 | 14 | 256 | 1.6 | 4.8 | 0.00 | 0.00 | 0.00 | 71 | 1014.0 |
| 20260510023035 | 15 | 276 | 0.0 | 0.0 | 0.00 | 0.00 | 0.00 | 70 | 1013.9 |
| 20260510021536 | 15 | 256 | 0.0 | 3.2 | 0.00 | 0.00 | 0.00 | 70 | 1013.6 |
| 20260510020034 | 16 | 336 | 0.0 | 4.8 | 0.00 | 0.00 | 0.00 | 67 | 1013.4 |
| 20260510014533 | 15 | 341 | 1.6 | 4.8 | 0.00 | 0.00 | 0.00 | 66 | 1013.0 |
| 20260510013034 | 16 | 242 | 3.2 | 4.8 | 0.00 | 0.00 | 0.00 | 67 | 1012.7 |
| 20260510011532 | 16 | 224 | 0.0 | 3.2 | 0.00 | 0.00 | 0.00 | 64 | 1012.4 |
| 20260510010032 | 17 | 161 | 0.0 | 3.2 | 0.00 | 0.00 | 0.00 | 62 | 1012.3 |
| 20260510004531 | 17 | 175 | 0.0 | 4.8 | 0.00 | 0.00 | 0.00 | 59 | 1012.3 |
| 20260510003032 | 18 | 331 | 0.0 | 4.8 | 0.00 | 0.00 | 0.00 | 57 | 1012.2 |
| 20260510001530 | 18 | 189 | 1.6 | 4.8 | 0.00 | 0.00 | 0.00 | 57 | 1012.1 |
| 20260510000036 | 19 | 324 | 1.6 | 8.0 | 0.00 | 0.00 | 0.00 | 55 | 1011.6 |
| 20260509234540 | 20 | 19 | 0.0 | 6.4 | 0.00 | 0.00 | 0.00 | 56 | 1011.4 |
| 20260509233029 | 20 | 12 | 3.2 | 12.9 | 0.00 | 0.00 | 0.00 | 54 | 1011.3 |
| 20260509231528 | 21 | 329 | 1.6 | 6.4 | 0.00 | 0.00 | 0.00 | 53 | 1011.1 |
| 20260509230029 | 21 | 17 | 1.6 | 12.9 | 0.00 | 0.00 | 0.00 | 53 | 1011.0 |
| 20260509224540 | 22 | 109 | 1.6 | 6.4 | 0.00 | 0.00 | 0.00 | 49 | 1011.0 |
| 20260509223027 | 22 | 5 | 1.6 | 12.9 | 0.00 | 0.00 | 0.00 | 49 | 1010.9 |
| 20260509221528 | 22 | 351 | 3.2 | 12.9 | 0.00 | 0.00 | 0.00 | 48 | 1010.8 |
| 20260509220027 | 22 | 5 | 3.2 | 12.9 | 0.00 | 0.00 | 0.00 | 48 | 1010.7 |
| 20260509214524 | 22 | 267 | 4.8 | 17.7 | 0.00 | 0.00 | 0.00 | 47 | 1010.7 |
| 20260509213023 | 23 | 319 | 4.8 | 11.3 | 0.00 | 0.00 | 0.00 | 48 | 1010.4 |
| 20260509211522 | 23 | 211 | 0.0 | 14.5 | 0.00 | 0.00 | 0.00 | 45 | 1010.3 |
| 20260509210022 | 23 | 213 | 0.0 | 8.0 | 0.00 | 0.00 | 0.00 | 47 | 1010.3 |
| 20260509204623 | 23 | 194 | 4.8 | 11.3 | 0.00 | 0.00 | 0.00 | 45 | 1010.3 |
| 20260509203020 | 23 | 355 | 1.6 | 4.8 | 0.00 | 0.00 | 0.00 | 49 | 1010.1 |
| 20260509201518 | 23 | 322 | 1.6 | 8.0 | 0.00 | 0.00 | 0.00 | 48 | 1010.1 |
| 20260509200019 | 23 | 140 | 0.0 | 16.1 | 0.00 | 0.00 | 0.00 | 47 | 1010.1 |
| 20260509194521 | 24 | 15 | 1.6 | 20.9 | 0.00 | 0.00 | 0.00 | 45 | 1010.1 |
| 20260509193016 | 24 | 295 | 4.8 | 11.3 | 0.00 | 0.00 | 0.00 | 46 | 1010.1 |
| 20260509191510 | 22 | 181 | 4.8 | 14.5 | 0.00 | 0.00 | 0.00 | 48 | 1010.2 |
| 20260509190011 | 22 | 165 | 6.4 | 16.1 | 0.00 | 0.00 | 0.00 | 50 | 1010.5 |
| 20260509184518 | 23 | 201 | 8.0 | 12.9 | 0.00 | 0.00 | 0.00 | 48 | 1010.5 |
| 20260509183007 | 22 | 177 | 3.2 | 16.1 | 0.00 | 0.00 | 0.00 | 49 | 1010.5 |
| 20260509181506 | 22 | 165 | 6.4 | 25.7 | 0.00 | 0.00 | 0.00 | 49 | 1010.9 |
| 20260509180004 | 22 | 223 | 8.0 | 25.7 | 0.00 | 0.00 | 0.00 | 49 | 1010.9 |
| 20260509174501 | 22 | 159 | 4.8 | 17.7 | 0.00 | 0.00 | 0.00 | 47 | 1010.9 |
| 20260509173111 | 22 | 194 | 3.2 | 17.7 | 0.00 | 0.00 | 0.00 | 49 | 1011.0 |
| 20260509171557 | 22 | 182 | 4.8 | 17.7 | 0.00 | 0.00 | 0.00 | 54 | 1011.3 |
| 20260509170054 | 22 | 165 | 12.9 | 27.4 | 0.00 | 0.00 | 0.00 | 51 | 1011.5 |
| 20260509164548 | 21 | 96 | 3.2 | 11.3 | 0.00 | 0.00 | 0.00 | 60 | 1011.9 |
| 20260509163044 | 20 | 295 | 3.2 | 6.4 | 0.00 | 0.00 | 0.00 | 66 | 1012.2 |
| 20260509161550 | 19 | 158 | 1.6 | 6.4 | 0.00 | 0.00 | 0.00 | 66 | 1012.2 |
| 20260509160040 | 18 | 136 | 4.8 | 14.5 | 0.00 | 0.00 | 0.00 | 66 | 1012.1 |
| 20260509154538 | 19 | 165 | 3.2 | 11.3 | 0.00 | 0.00 | 0.00 | 66 | 1011.9 |
| 20260509153034 | 18 | 133 | 6.4 | 16.1 | 0.00 | 0.00 | 0.00 | 66 | 1012.4 |
| 20260509151532 | 18 | 96 | 6.4 | 11.3 | 0.00 | 0.00 | 0.00 | 67 | 1012.5 |
| 20260509150029 | 18 | 151 | 3.2 | 12.9 | 0.00 | 0.00 | 0.00 | 68 | 1012.5 |
| 20260509144529 | 17 | 139 | 1.6 | 6.4 | 0.00 | 0.00 | 0.00 | 69 | 1012.6 |
| 20260509143027 | 17 | 270 | 1.6 | 8.0 | 0.00 | 0.00 | 0.00 | 70 | 1012.8 |
| 20260509141537 | 17 | 269 | 3.2 | 11.3 | 0.00 | 0.00 | 0.00 | 69 | 1012.7 |
| 20260509140022 | 16 | 190 | 6.4 | 11.3 | 0.00 | 0.00 | 0.00 | 72 | 1012.6 |
| 20260509134527 | 15 | 142 | 4.8 | 9.7 | 0.00 | 0.00 | 0.00 | 75 | 1012.5 |
| 20260509133013 | 13 | 143 | 4.8 | 8.0 | 0.00 | 0.00 | 0.00 | 79 | 1012.8 |
| 20260509131508 | 12 | 165 | 4.8 | 8.0 | 0.00 | 0.00 | 0.00 | 82 | 1013.5 |
| 20260509130004 | 11 | 110 | 0.0 | 0.0 | 0.00 | 0.00 | 0.00 | 85 | 1013.5 |
| 20260509124600 | 10 | 110 | 0.0 | 1.6 | 0.00 | 0.00 | 0.00 | 85 | 1013.9 |
| 20260509123057 | 9 | 110 | 0.0 | 4.8 | 0.00 | 0.00 | 0.00 | 86 | 1013.9 |
| 20260509121554 | 8 | 178 | 1.6 | 3.2 | 0.00 | 0.00 | 0.00 | 87 | 1013.9 |